Simultaneous Nadir Overpasses (SNOs) Predictions

Prediction of SNOs between GOES-16 and LANDSAT-8 Satellite Orbit:

Table of predicted SNOs for the next 14.0 days since TLE Epoch: 4/25/2025
Index Date Time (GOES-16) GOES-16 Lat,Lon LANDSAT-8 Lat,Lon Distance(km) Time Diff (sec)
1 04/26/2025 15:30:43 0.07, -83.41 -0.59, -80.17 367.92 80
2 04/27/2025 03:54:49 -0.07, -83.65 -0.42, -85.38 195.88 80
3 04/29/2025 03:40:01 -0.07, -84.67 0.38, -82.47 250.58 80
4 04/29/2025 16:03:57 0.06, -84.96 0.63, -87.64 305.22 80
5 05/01/2025 15:49:09 0.06, -85.98 -0.19, -84.73 141.46 80
6 05/02/2025 04:13:14 -0.05, -86.23 -0.86, -89.94 422.17 80
7 05/04/2025 03:58:26 -0.05, -87.26 -0.01, -87.03 25.52 80
8 05/06/2025 03:46:18 -0.04, -88.29 0.87, -84.13 474.38 80
9 05/06/2025 16:10:14 0.04, -88.58 0.18, -89.29 80.66 80
10 05/08/2025 15:55:25 0.04, -89.63 -0.66, -86.38 369.22 80
11 05/09/2025 04:19:29 -0.04, -89.88 -0.43, -91.58 193.59 80
